| time (UTC) | temp C | wind direction | speed KPH | gust KPH | rain 1hr cm | rain 24hr cm | rain mn cm | humidity % | barometer mb |
| 20260505121535 | 10 | 320 | 11.3 | 0.0 | 0.00 | 0.00 | 0.00 | 57 | 974.1 |
| 20260505120117 | 10 | 328 | 12.9 | 0.0 | 0.00 | 0.00 | 0.00 | 57 | 974.1 |
| 20260505114536 | 10 | 317 | 14.5 | 0.0 | 0.00 | 0.00 | 0.00 | 59 | 973.9 |
| 20260505113053 | 10 | 328 | 16.1 | 0.0 | 0.00 | 0.00 | 0.00 | 64 | 972.4 |
| 20260505111535 | 10 | 340 | 16.1 | 0.0 | 0.00 | 0.00 | 0.00 | 64 | 972.3 |
| 20260505110111 | 10 | 330 | 17.7 | 0.0 | 0.00 | 0.00 | 0.00 | 64 | 972.3 |
| 20260505101535 | 11 | 283 | 16.1 | 0.0 | 0.00 | 0.00 | 0.00 | 49 | 970.9 |
| 20260505100109 | 11 | 269 | 16.1 | 0.0 | 0.00 | 0.00 | 0.00 | 49 | 970.9 |
| 20260505094535 | 11 | 269 | 14.5 | 0.0 | 0.00 | 0.00 | 0.00 | 50 | 971.2 |
| 20260505093058 | 11 | 266 | 14.5 | 0.0 | 0.00 | 0.00 | 0.00 | 49 | 970.7 |
| 20260505091535 | 11 | 249 | 16.1 | 0.0 | 0.00 | 0.00 | 0.00 | 49 | 970.7 |
| 20260505090113 | 11 | 258 | 14.5 | 0.0 | 0.00 | 0.00 | 0.00 | 49 | 970.7 |
| 20260505084534 | 12 | 269 | 14.5 | 0.0 | 0.00 | 0.00 | 0.00 | 66 | 971.2 |
| 20260505083054 | 11 | 260 | 16.1 | 0.0 | 0.00 | 0.00 | 0.00 | 70 | 970.4 |
| 20260505081535 | 11 | 246 | 16.1 | 0.0 | 0.00 | 0.00 | 0.00 | 70 | 970.4 |
| 20260505080106 | 12 | 244 | 17.7 | 0.0 | 0.00 | 0.00 | 0.00 | 58 | 970.6 |
| 20260505074535 | 12 | 247 | 19.3 | 0.0 | 0.00 | 0.00 | 0.00 | 71 | 969.8 |
| 20260505073056 | 12 | 243 | 16.1 | 0.0 | 0.00 | 0.00 | 0.00 | 71 | 969.8 |
| 20260505071536 | 13 | 231 | 22.5 | 0.0 | 0.00 | 0.00 | 0.00 | 71 | 969.9 |
| 20260505070107 | 13 | 217 | 19.3 | 0.0 | 0.00 | 0.00 | 0.00 | 71 | 969.9 |
| 20260505064535 | 13 | 239 | 17.7 | 0.0 | 0.00 | 0.00 | 0.00 | 63 | 970.4 |
| 20260505063052 | 13 | 242 | 17.7 | 0.0 | 0.00 | 0.00 | 0.00 | 75 | 969.8 |
| 20260505061536 | 13 | 243 | 16.1 | 0.0 | 0.00 | 0.00 | 0.00 | 75 | 969.8 |
| 20260505060114 | 14 | 240 | 17.7 | 0.0 | 0.00 | 0.00 | 0.00 | 75 | 969.8 |
| 20260505054536 | 14 | 237 | 17.7 | 0.0 | 0.00 | 0.00 | 0.00 | 70 | 971.1 |
| 20260505053059 | 15 | 244 | 20.9 | 0.0 | 0.00 | 0.00 | 0.00 | 62 | 969.6 |
| 20260505051535 | 15 | 245 | 24.1 | 0.0 | 0.00 | 0.00 | 0.00 | 62 | 969.6 |
| 20260505050104 | 16 | 243 | 25.7 | 0.0 | 0.00 | 0.00 | 0.00 | 62 | 969.6 |
| 20260505041535 | 16 | 211 | 24.1 | 0.0 | 0.03 | 0.03 | 0.03 | 64 | 969.4 |
| 20260505040110 | 16 | 245 | 32.2 | 0.0 | 0.03 | 0.03 | 0.03 | 64 | 969.4 |
| 20260505034532 | 17 | 227 | 24.1 | 0.0 | 0.00 | 0.00 | 0.00 | 57 | 969.3 |
| 20260505033055 | 16 | 213 | 32.2 | 0.0 | 0.00 | 0.00 | 0.00 | 65 | 969.3 |
| 20260505031535 | 16 | 208 | 27.4 | 0.0 | 0.00 | 0.00 | 0.00 | 65 | 969.3 |
| 20260505030106 | 16 | 204 | 29.0 | 0.0 | 0.00 | 0.00 | 0.00 | 65 | 969.3 |
| 20260505024535 | 17 | 200 | 33.8 | 0.0 | 0.00 | 0.00 | 0.00 | 51 | 969.6 |
| 20260505023055 | 17 | 205 | 30.6 | 0.0 | 0.00 | 0.00 | 0.00 | 56 | 969.6 |
| 20260505021535 | 17 | 206 | 32.2 | 0.0 | 0.00 | 0.00 | 0.00 | 56 | 969.5 |
| 20260505020106 | 17 | 209 | 32.2 | 0.0 | 0.00 | 0.00 | 0.00 | 56 | 969.5 |
| 20260505014534 | 17 | 212 | 32.2 | 0.0 | 0.00 | 0.00 | 0.00 | 46 | 968.7 |
| 20260505013053 | 17 | 208 | 30.6 | 0.0 | 0.00 | 0.00 | 0.00 | 46 | 968.7 |
| 20260505011535 | 17 | 207 | 32.2 | 0.0 | 0.00 | 0.00 | 0.00 | 46 | 968.6 |
| 20260505004535 | 18 | 206 | 16.1 | 0.0 | 0.00 | 0.00 | 0.00 | 41 | 969.4 |
| 20260505003052 | 18 | 202 | 11.3 | 0.0 | 0.00 | 0.00 | 0.00 | 40 | 970.1 |
| 20260505001534 | 19 | 205 | 11.3 | 0.0 | 0.00 | 0.00 | 0.00 | 40 | 970.0 |
| 20260505000109 | 20 | 213 | 12.9 | 0.0 | 0.00 | 0.00 | 0.00 | 40 | 970.0 |
| 20260504234535 | 20 | 223 | 16.1 | 0.0 | 0.00 | 0.00 | 0.00 | 34 | 970.1 |
| 20260504233053 | 21 | 225 | 19.3 | 0.0 | 0.00 | 0.00 | 0.00 | 35 | 969.9 |
| 20260504231534 | 21 | 234 | 20.9 | 0.0 | 0.00 | 0.00 | 0.00 | 35 | 969.9 |
| 20260504230101 | 21 | 240 | 24.1 | 0.0 | 0.00 | 0.00 | 0.00 | 35 | 969.9 |
| 20260504224535 | 21 | 244 | 27.4 | 0.0 | 0.00 | 0.00 | 0.00 | 37 | 969.8 |
| 20260504223055 | 22 | 249 | 29.0 | 0.0 | 0.00 | 0.00 | 0.00 | 37 | 970.2 |
| 20260504221534 | 22 | 246 | 30.6 | 0.0 | 0.00 | 0.00 | 0.00 | 37 | 970.2 |
| 20260504220109 | 22 | 245 | 30.6 | 0.0 | 0.00 | 0.00 | 0.00 | 37 | 970.2 |
| 20260504214533 | 22 | 243 | 32.2 | 0.0 | 0.00 | 0.00 | 0.00 | 34 | 971.1 |
| 20260504213056 | 22 | 236 | 30.6 | 0.0 | 0.00 | 0.00 | 0.00 | 34 | 971.1 |
| 20260504211534 | 22 | 239 | 33.8 | 0.0 | 0.00 | 0.00 | 0.00 | 32 | 970.0 |
| 20260504210106 | 22 | 237 | 32.2 | 0.0 | 0.00 | 0.00 | 0.00 | 32 | 970.0 |
| 20260504204539 | 22 | 236 | 35.4 | 0.0 | 0.00 | 0.00 | 0.00 | 29 | 970.8 |
| 20260504203049 | 22 | 237 | 32.2 | 0.0 | 0.00 | 0.00 | 0.00 | 29 | 970.8 |
| 20260504201540 | 22 | 237 | 33.8 | 0.0 | 0.00 | 0.00 | 0.00 | 29 | 970.8 |
| 20260504200103 | 22 | 236 | 35.4 | 0.0 | 0.00 | 0.00 | 0.00 | 32 | 970.1 |
| 20260504194540 | 22 | 233 | 35.4 | 0.0 | 0.00 | 0.00 | 0.00 | 26 | 970.9 |
| 20260504193059 | 22 | 233 | 33.8 | 0.0 | 0.00 | 0.00 | 0.00 | 26 | 970.9 |
| 20260504191541 | 22 | 227 | 35.4 | 0.0 | 0.00 | 0.00 | 0.00 | 26 | 970.9 |
| 20260504190107 | 22 | 223 | 29.0 | 0.0 | 0.00 | 0.00 | 0.00 | 26 | 970.9 |
| 20260504184536 | 22 | 225 | 30.6 | 0.0 | 0.00 | 0.00 | 0.00 | 25 | 971.9 |
| 20260504183100 | 22 | 228 | 30.6 | 0.0 | 0.00 | 0.00 | 0.00 | 25 | 971.7 |
| 20260504181540 | 22 | 229 | 30.6 | 0.0 | 0.00 | 0.00 | 0.00 | 25 | 971.7 |
| 20260504180113 | 22 | 231 | 29.0 | 0.0 | 0.00 | 0.00 | 0.00 | 25 | 971.7 |
| 20260504174539 | 22 | 238 | 30.6 | 0.0 | 0.00 | 0.00 | 0.00 | 33 | 972.5 |
| 20260504173055 | 22 | 234 | 27.4 | 0.0 | 0.00 | 0.00 | 0.00 | 32 | 972.4 |
| 20260504171539 | 21 | 236 | 32.2 | 0.0 | 0.00 | 0.00 | 0.00 | 32 | 972.4 |
| 20260504170104 | 21 | 231 | 30.6 | 0.0 | 0.00 | 0.00 | 0.00 | 30 | 972.1 |
| 20260504160109 | 19 | 219 | 27.4 | 0.0 | 0.00 | 0.00 | 0.00 | 42 | 972.6 |
| 20260504150112 | 17 | 214 | 22.5 | 0.0 | 0.00 | 0.00 | 0.00 | 58 | 973.0 |
| 20260504140115 | 15 | 214 | 22.5 | 0.0 | 0.00 | 0.00 | 0.00 | 65 | 973.1 |
| 20260504130109 | 12 | 212 | 20.9 | 0.0 | 0.00 | 0.00 | 0.00 | 74 | 973.0 |